TimePST,TemperatureF,Dew PointF,Humidity,Sea Level PressureIn,VisibilityMPH,Wind Direction,Wind SpeedMPH,Gust SpeedMPH,PrecipitationIn,Events,Conditions,WindDirDegrees,DateUTC
12:56 AM,30.9,27.0,85,29.98,10.0,NNE,4.6,-,N/A,,Clear,30,2013-11-18 08:56:00
1:56 AM,36.0,26.1,67,29.97,10.0,ESE,6.9,-,N/A,,Clear,120,2013-11-18 09:56:00
2:56 AM,39.9,27.0,60,29.96,10.0,ESE,5.8,-,N/A,,Clear,120,2013-11-18 10:56:00
3:56 AM,41.0,27.0,57,29.96,10.0,SE,6.9,-,N/A,,Clear,140,2013-11-18 11:56:00
4:56 AM,41.0,27.0,57,29.95,10.0,Variable,3.5,-,N/A,,Clear,0,2013-11-18 12:56:00
5:56 AM,37.0,28.0,70,29.98,10.0,NE,5.8,-,N/A,,Clear,40,2013-11-18 13:56:00
6:56 AM,36.0,28.0,73,29.98,10.0,ENE,4.6,-,N/A,,Clear,60,2013-11-18 14:56:00
7:56 AM,39.9,27.0,60,29.98,10.0,SSE,6.9,-,N/A,,Clear,160,2013-11-18 15:56:00
8:56 AM,45.0,28.9,53,29.99,10.0,South,8.1,-,N/A,,Clear,180,2013-11-18 16:56:00
9:56 AM,45.0,28.9,53,29.97,10.0,South,6.9,-,N/A,,Clear,170,2013-11-18 17:56:00
10:56 AM,48.0,30.0,50,29.96,10.0,South,6.9,-,N/A,,Clear,180,2013-11-18 18:56:00
11:56 AM,48.9,30.0,48,29.91,10.0,South,17.3,25.3,N/A,,Clear,180,2013-11-18 19:56:00
1:56 PM,52.0,30.9,45,29.86,10.0,South,8.1,-,N/A,,Mostly Cloudy,180,2013-11-18 21:56:00
2:56 PM,51.1,30.9,46,29.83,10.0,South,18.4,23.0,N/A,,Overcast,170,2013-11-18 22:56:00
3:56 PM,51.1,32.0,48,29.83,10.0,SSW,9.2,-,N/A,,Overcast,200,2013-11-18 23:56:00
4:56 PM,48.9,34.0,56,29.83,10.0,SSW,13.8,-,N/A,,Overcast,200,2013-11-19 00:56:00
5:56 PM,48.0,35.1,61,29.81,10.0,South,18.4,29.9,N/A,,Overcast,190,2013-11-19 01:56:00
6:56 PM,46.9,36.0,66,29.82,10.0,South,20.7,28.8,N/A,,Scattered Clouds,190,2013-11-19 02:56:00
7:56 PM,46.9,35.1,63,29.82,10.0,South,19.6,24.2,N/A,,Mostly Cloudy,190,2013-11-19 03:56:00
8:56 PM,46.0,36.0,68,29.80,10.0,South,18.4,25.3,N/A,,Scattered Clouds,190,2013-11-19 04:56:00
9:56 PM,45.0,36.0,71,29.80,10.0,South,25.3,34.5,N/A,,Mostly Cloudy,190,2013-11-19 05:56:00
10:56 PM,45.0,36.0,71,29.79,10.0,South,15.0,-,N/A,,Mostly Cloudy,180,2013-11-19 06:56:00
11:56 PM,46.0,36.0,68,29.78,10.0,South,19.6,29.9,N/A,,Overcast,180,2013-11-19 07:56:00